This demonstration page uses our WeatherBlox Daily Observations layout. Learn more.

Left ArrowRight Arrow

39.08367, -84.50855

Hourly Observations for November 10, 2022

Temp ( °F °C ) Dew Point ( °F °C ) Humidity (%) Winds ( mph kmh ) Pressure ( in mb ) Visibility ( mi km ) Precip ( " mm )
12:53 am 00:53 Clear 41 5 38 3.3 89 89 Calm 30.24 1024 10 16 0.00 0.00
1:53 am 01:53 Clear 40 4.4 37 2.8 89 89 Calm 30.24 1024 10 16 0.00 0.00
2:53 am 02:53 Clear 39 3.9 37 2.8 93 93 Calm 30.24 1024 9 14 0.00 0.00
3:53 am 03:53 Clear 38 3.3 36 2.2 92 92 Calm 30.22 1024 9 14 0.00 0.00
4:53 am 04:53 Clear 37 2.8 36 2.2 96 96 Calm 30.23 1024 8 13 0.00 0.00
5:53 am 05:53 Clear 37 2.8 36 2.2 96 96 Calm 30.24 1024 8 13 0.00 0.00
6:53 am 06:53 Clear 37 2.8 35 1.7 92 92 ENE 3 6 30.24 1024 10 16 0.00 0.00
7:53 am 07:53 Sunny 38 3.3 36 2.2 92 92 ENE 3 6 30.26 1025 10 16 0.00 0.00
8:53 am 08:53 Sunny 47 8.3 42 5.6 83 83 Calm 30.26 1025 10 16 0.00 0.00
9:53 am 09:53 Sunny 56 13.3 41 5 57 57 Calm 30.24 1024 10 16 0.00 0.00
10:53 am 10:53 Sunny 63 17.2 41 5 44 44 SW 7 11 30.21 1023 10 16 0.00 0.00
11:53 am 11:53 Sunny 67 19.4 39 3.9 36 36 S 6 9 30.17 1022 10 16 0.00 0.00
12:53 pm 12:53 Sunny 70 21.1 39 3.9 32 32 VRB 5 7 30.14 1021 10 16 0.00 0.00
1:53 pm 13:53 Sunny 71 21.7 41 5 34 34 S 6 9 30.11 1020 9 14 0.00 0.00
2:53 pm 14:53 Sunny 71 21.7 40 4.4 32 32 S 6 9 30.07 1018 10 16 0.00 0.00
3:53 pm 15:53 Sunny 70 21.1 41 5 35 35 S 6 9 30.07 1018 10 16 0.00 0.00
4:53 pm 16:53 Sunny 69 20.6 38 3.3 32 32 Calm 30.05 1018 10 16 0.00 0.00
5:53 pm 17:53 Clear 59 15 42 5.6 53 53 NE 3 6 30.05 1018 10 16 0.00 0.00
6:53 pm 18:53 Clear 51 10.6 42 5.6 71 71 Calm 30.04 1017 10 16 0.00 0.00
7:53 pm 19:53 Clear 51 10.6 42 5.6 71 71 Calm 30.03 1017 10 16 0.00 0.00
8:53 pm 20:53 Clear 51 10.6 43 6.1 74 74 Calm 30.00 1016 9 14 0.00 0.00
9:53 pm 21:53 Clear 48 8.9 42 5.6 80 80 Calm 29.99 1016 9 14 0.00 0.00
10:53 pm 22:53 Clear 49 9.4 42 5.6 77 77 Calm 29.96 1014 9 14 0.00 0.00
11:53 pm 23:53 Mostly Clear 49 9.4 43 6.1 80 80 Calm 29.93 1014 9 14 0.00 0.00

Powered by AerisWeather